Regional Weather Roundup
Issued by NWS

Home | Current Version | Previous Version | Graphics & Text | Print | Product List | Glossary On
Versions: 1 2 3 4 5 6 7 8 9 10 11 12 13 14 15 16 17 18 19 20 21 22 23 24 25 26 27 28 29 30 31 32 33 34 35 36 37 38 39 40 41 42 43 44 45 46 47 48 49 50
000
ASUS43 KFSD 050402
RWRSD

WEATHER ROUNDUP FOR SOUTH DAKOTA
NATIONAL WEATHER SERVICE SIOUX FALLS SD
1100 PM CDT TUE AUG 04 2015

NOTE: "FAIR" INDICATES FEW OR NO CLOUDS BELOW 12,000 FEET WITH NO
SIGNIFICANT WEATHER AND/OR OBSTRUCTIONS TO VISIBILITY.


SDZ001>005-009-010-012>017-050500-
NORTHWEST AND NORTH CENTRAL SOUTH DAKOTA

CITY           SKY/WX    TMP DP  RH WIND       PRES   REMARKS
FAITH            N/A     73  54  51 SE17      29.96S
MOBRIDGE       PTCLDY    69  61  75 SE8       29.96S
$$

SDZ012>016-024>037-041>051-057-063-072>074-050500-
SOUTHWEST AND SOUTH CENTRAL SOUTH DAKOTA

CITY           SKY/WX    TMP DP  RH WIND       PRES   REMARKS
RAPID CTY ARPT CLOUDY    70  60  70 SE9       29.98R
PIERRE         MOCLDY    72  61  68 SE10      29.97R
CUSTER         CLOUDY    63  53  70 CALM      30.13R
ELLSWORTH AFB  CLOUDY    73  60  63 SE6       29.98R
PHILIP         PTCLDY    70  66  87 E7        29.96R
PINE RIDGE     PTCLDY    66  59  78 N5        30.02R
WINNER         FAIR      70  64  81 SE7       30.00R
$$

SDZ004>011-016>023-039-040-050500-
NORTHEAST SOUTH DAKOTA

CITY           SKY/WX    TMP DP  RH WIND       PRES   REMARKS
ABERDEEN       PTCLDY    68  57  68 E8        30.01R
WATERTOWN      MOCLDY    68  54  60 SE5       30.03R
BROOKINGS      PTCLDY    66  57  72 SE8       30.05R
$$

SDZ017-020-022-023-036>040-048>070-050500-
SOUTHEAST SOUTH DAKOTA

CITY           SKY/WX    TMP DP  RH WIND       PRES   REMARKS
SIOUX FALLS    MOCLDY    68  61  78 E8        30.02R
HURON          MOCLDY    69  61  75 SE8       29.99R
CHAMBERLAIN    PTCLDY    67  64  88 E5        30.00R
MITCHELL       MOCLDY    67  64  90 SE7       30.00R
YANKTON        CLOUDY    70  64  83 E5        29.99R
$$

ABBREVIATIONS USED IN REMARKS
   TC - TEMPERATURE IN CELSIUS
  WCI - WIND CHILL INDEX
   HX - HEAT INDEX
  VSB - VISIBILITY



USA.gov is the U.S. government's official web portal to all federal, state and local government web resources and services.